Weather History for Walterboro, SC

Change the Weather History Date:

Tuesday, October 16, 2012

  Actual Average Record
Temperature  
Mean Temperature 58 °F -  
Max Temperature 71 °F 79 °F 82 °F (2011)
Min Temperature 46 °F 53 °F 41 °F (2010)
Degree Days  
Heating Degree Days 6    
Growing Degree Days 8 (Base 50)    
Moisture  
Dew Point 45 °F    
Average Humidity 64    
Maximum Humidity 100    
Minimum Humidity 31    
Precipitation  
Precipitation 0.00 in - - ()
Sea Level Pressure  
Sea Level Pressure 29.92 in    
Wind  
Wind Speed 4 mph (North)    
Max Wind Speed 12 mph    
Max Gust Speed 18 mph    
Visibility 10 miles    
Events      
Averages and records for this station are not official NWS values.
T = Trace of Precipitation, MM = Missing Value Source: NWS Daily Summary

Daily Weather History Graph

Daily Weather History Graph

Search for Another Location

Airport:

Trip Planner

Search our weather history database for the weather conditions in past years. The results will help you decide how hot, cold, wet, or windy it might be!

Date:

Astronomy

Oct. 16, 2012 Rise Set
Actual Time 7:27 AM EDT 6:47 PM EDT
Civil Twilight 7:02 AM EDT 7:12 PM EDT
Nautical Twilight 6:34 AM EDT 7:41 PM EDT
Astronomical Twilight 6:05 AM EDT 8:09 PM EDT
Moon 8:42 AM EDT (10/16) 7:38 PM EDT (10/16)
Length of Visible Light 12h 09m
Length of Day
11h 19m
New Moon, 2% of the Moon is Illuminated
Oct 16
New Moon
Oct 21
First Quarter
Oct 29
Full
Nov 6
Last Quarter
Nov 13
New

Hourly Weather History & Observations

Time (EDT) Temp. Windchill Dew Point Humidity Pressure Visibility Wind Dir Wind Speed Gust Speed Precip Events Conditions
12:15 AM 60.8 °F - 53.6 °F 77% 29.87 in 10.0 mi NNW 4.6 mph - N/A   Clear
12:35 AM 60.8 °F - 53.6 °F 77% 29.87 in 10.0 mi NNW 3.5 mph - N/A   Clear
12:55 AM 59.0 °F - 51.8 °F 77% 29.87 in 10.0 mi NNW 3.5 mph - N/A   Clear
1:15 AM 59.0 °F - 51.8 °F 77% 29.88 in 10.0 mi NW 3.5 mph - N/A   Clear
1:55 AM 59.0 °F - 50.0 °F 72% 29.89 in 10.0 mi NNW 5.8 mph - N/A   Clear
2:15 AM 59.0 °F - 46.4 °F 63% 29.89 in 10.0 mi NNW 4.6 mph - N/A   Clear
2:35 AM 55.4 °F - 46.4 °F 72% 29.89 in 10.0 mi NNW 3.5 mph - N/A   Clear
2:55 AM 55.4 °F - 46.4 °F 72% 29.89 in 10.0 mi NNW 4.6 mph - N/A   Clear
3:35 AM 53.6 °F - 46.4 °F 77% 29.89 in 10.0 mi NNW 4.6 mph - N/A   Clear
3:55 AM 53.6 °F - 46.4 °F 77% 29.90 in 10.0 mi NW 3.5 mph - N/A   Clear
4:15 AM 51.8 °F - 46.4 °F 82% 29.90 in 10.0 mi NW 4.6 mph - N/A   Clear
4:35 AM 51.8 °F - 46.4 °F 82% 29.90 in 10.0 mi NNW 4.6 mph - N/A   Clear
4:55 AM 51.8 °F - 46.4 °F 82% 29.91 in 10.0 mi NW 3.5 mph - N/A   Clear
5:15 AM 51.8 °F - 46.4 °F 82% 29.92 in 10.0 mi NNW 3.5 mph - N/A   Clear
5:35 AM 50.0 °F - 46.4 °F 87% 29.92 in 10.0 mi NNW 4.6 mph - N/A   Clear
5:55 AM 50.0 °F - 46.4 °F 87% 29.93 in 10.0 mi NNW 3.5 mph - N/A   Clear
6:15 AM 50.0 °F - 46.4 °F 87% 29.93 in 10.0 mi NNW 3.5 mph - N/A   Clear
6:55 AM 46.4 °F 45.2 °F 46.4 °F 100% 29.95 in 10.0 mi NNW 3.5 mph - N/A   Clear
7:15 AM 46.4 °F 45.2 °F 46.4 °F 100% 29.95 in 10.0 mi NNW 3.5 mph - N/A   Clear
7:35 AM 46.4 °F 45.2 °F 46.4 °F 100% 29.95 in 10.0 mi NW 3.5 mph - N/A   Clear
8:15 AM 50.0 °F - 46.4 °F 87% 29.97 in 10.0 mi Calm Calm - N/A   Clear
8:55 AM 55.4 °F - 46.4 °F 72% 29.98 in 10.0 mi North 4.6 mph - N/A   Clear
9:35 AM 60.8 °F - 44.6 °F 55% 29.99 in 10.0 mi NNE 5.8 mph 16.1 mph N/A   Clear
9:55 AM 60.8 °F - 44.6 °F 55% 29.98 in 10.0 mi NNE 5.8 mph - N/A   Clear
10:15 AM 62.6 °F - 44.6 °F 52% 29.98 in 10.0 mi NNE 4.6 mph - N/A   Clear
10:35 AM 62.6 °F - 42.8 °F 48% 29.98 in 10.0 mi NNE 10.4 mph 16.1 mph N/A   Clear
10:55 AM 64.4 °F - 42.8 °F 45% 29.98 in 10.0 mi NE 9.2 mph 17.3 mph N/A   Clear
11:15 AM 64.4 °F - 41.0 °F 42% 29.98 in 10.0 mi ENE 11.5 mph 18.4 mph N/A   Clear
11:35 AM 66.2 °F - 41.0 °F 40% 29.98 in 10.0 mi ENE 10.4 mph - N/A   Clear
11:55 AM 68.0 °F - 41.0 °F 37% 29.97 in 10.0 mi NE 9.2 mph - N/A   Clear
12:15 PM 68.0 °F - 41.0 °F 37% 29.97 in 10.0 mi East 9.2 mph - N/A   Clear
12:35 PM 68.0 °F - 41.0 °F 37% 29.96 in 10.0 mi NE 8.1 mph - N/A   Clear
12:55 PM 69.8 °F - 41.0 °F 35% 29.96 in 10.0 mi East 6.9 mph - N/A   Clear
1:15 PM 69.8 °F - 41.0 °F 35% 29.95 in 10.0 mi ENE 9.2 mph - N/A   Clear
1:35 PM 69.8 °F - 41.0 °F 35% 29.94 in 10.0 mi Calm Calm - N/A   Clear
1:55 PM 69.8 °F - 39.2 °F 33% 29.93 in 10.0 mi Calm Calm - N/A   Clear
2:35 PM 69.8 °F - 41.0 °F 35% 29.91 in 10.0 mi NW 4.6 mph - N/A   Clear
2:55 PM 71.6 °F - 41.0 °F 33% 29.90 in 10.0 mi NW 5.8 mph - N/A   Clear
3:15 PM 71.6 °F - 41.0 °F 33% 29.90 in 10.0 mi North 5.8 mph - N/A   Clear
3:35 PM 71.6 °F - 39.2 °F 31% 29.90 in 10.0 mi NNW 5.8 mph - N/A   Clear
3:55 PM 71.6 °F - 41.0 °F 33% 29.90 in 10.0 mi NNE 3.5 mph - N/A   Clear
4:15 PM 71.6 °F - 41.0 °F 33% 29.89 in 10.0 mi NNW 5.8 mph - N/A   Clear
4:35 PM 71.6 °F - 41.0 °F 33% 29.89 in 10.0 mi ENE 3.5 mph - N/A   Clear
4:55 PM 69.8 °F - 41.0 °F 35% 29.89 in 10.0 mi Calm Calm - N/A   Clear
5:15 PM 69.8 °F - 37.4 °F 31% 29.89 in 10.0 mi NNE 4.6 mph - N/A   Clear
5:35 PM 69.8 °F - 39.2 °F 33% 29.90 in 10.0 mi Calm Calm - N/A   Clear
5:55 PM 68.0 °F - 42.8 °F 40% 29.89 in 10.0 mi Calm Calm - N/A   Clear
6:15 PM 64.4 °F - 48.2 °F 56% 29.90 in 10.0 mi Calm Calm - N/A   Clear
6:35 PM 60.8 °F - 48.2 °F 63% 29.91 in 10.0 mi Calm Calm - N/A   Clear
6:55 PM 59.0 °F - 50.0 °F 72% 29.91 in 10.0 mi Calm Calm - N/A   Clear
7:15 PM 59.0 °F - 50.0 °F 72% 29.91 in 10.0 mi Calm Calm - N/A   Clear
7:55 PM 55.4 °F - 50.0 °F 82% 29.91 in 10.0 mi Calm Calm - N/A   Clear
8:15 PM 55.4 °F - 50.0 °F 82% 29.92 in 10.0 mi Calm Calm - N/A   Clear
8:35 PM 53.6 °F - 50.0 °F 88% 29.92 in 10.0 mi Calm Calm - N/A   Clear
8:55 PM 53.6 °F - 50.0 °F 88% 29.91 in 10.0 mi East 3.5 mph - N/A   Clear
9:15 PM 53.6 °F - 48.2 °F 82% 29.92 in 10.0 mi Calm Calm - N/A   Clear
9:55 PM 53.6 °F - 50.0 °F 88% 29.93 in 10.0 mi Calm Calm - N/A   Clear
10:15 PM 53.6 °F - 50.0 °F 88% 29.93 in 10.0 mi Calm Calm - N/A   Clear
10:55 PM 51.8 °F - 48.2 °F 88% 29.93 in 10.0 mi Calm Calm - N/A   Clear
11:15 PM 50.0 °F - 48.2 °F 94% 29.93 in 10.0 mi Calm Calm - N/A   Clear
11:35 PM 51.8 °F - 48.2 °F 88% 29.93 in 10.0 mi Calm Calm - N/A   Clear
11:55 PM 51.8 °F - 48.2 °F 88% 29.93 in 10.0 mi Calm Calm - N/A   Clear